Regional Weather Roundup
Issued by NWS

Home | Current Version | Previous Version | Graphics & Text | Print | Product List | Glossary On
Versions: 1 2 3 4 5 6 7 8 9 10 11 12 13 14 15 16 17 18 19 20 21 22 23 24 25 26 27 28 29 30 31 32 33 34 35 36 37 38 39 40 41 42 43 44 45 46 47 48 49 50
000
ASUS43 KOAX 241902
RWRNE

WEATHER ROUNDUP FOR NEBRASKA
NATIONAL WEATHER SERVICE OMAHA NE
200 PM CDT MON JUL 24 2017

NOTES: SATELLITE DATA IS BEING USED TO AUGMENT CLOUD COVER ABOVE
       12000 FEET.
       "FAIR" INDICATES FEW OR NO CLOUDS BELOW 12,000 FEET WITH NO
       SIGNIFICANT WEATHER AND/OR OBSTRUCTIONS TO VISIBILITY.


NEZ001>004-019>022-054>056-242000-
NEBRASKA PANHANDLE

CITY           SKY/WX    TMP DP  RH WIND       PRES   REMARKS
SCOTTSBLUFF    SUNNY     96  39  13 W7        29.93F HX  91
ALLIANCE       SUNNY     98  49  18 SW20G28   29.93F HX  95
CHADRON        SUNNY    100  38  11 W8        29.84F HX  95
GORDON         FAIR      94  59  31 SW17G26   29.89F HX  93
KIMBALL        SUNNY     93  49  21 S12G17    30.02F HX  90
SIDNEY         SUNNY     97  49  19 SW16G28   29.99F HX  94
$$

NEZ057>060-069>072-079>082-242000-
SOUTHWEST NEBRASKA

CITY           SKY/WX    TMP DP  RH WIND       PRES   REMARKS
NORTH PLATTE   SUNNY     97  57  26 S16G24    29.94F HX  96
IMPERIAL       SUNNY     96  54  24 S16G25    29.96F HX  94
LEXINGTON      SUNNY     88  70  56 S15       29.97F HX  93
MCCOOK         SUNNY     97  55  24 S17       29.95F HX  95
OGALLALA       SUNNY     96  53  23 S15G25    29.95S HX  93
$$

NEZ005>010-023>029-035>040-094-242000-
NORTH CENTRAL NEBRASKA

CITY           SKY/WX    TMP DP  RH WIND       PRES   REMARKS
VALENTINE      SUNNY    104  40  11 S24G36    29.83F HX  98
AINSWORTH      SUNNY     97  58  26 S23G29    29.89F HX  96
BROKEN BOW     SUNNY     93  66  40 S15G23    29.95F HX  96
O`NEILL        SUNNY     87  67  51 S20G25    29.92F HX  90
ORD            SUNNY     90  65  43 S17G24    29.93F HX  92
THEDFORD       SUNNY     98  52  21 S22G32    29.93F HX  95
$$

NEZ041-046>049-061>064-073>077-083>087-242000-
SOUTH CENTRAL NEBRASKA

CITY           SKY/WX    TMP DP  RH WIND       PRES   REMARKS
GRAND ISLAND   SUNNY     87  71  58 S15G22    29.98F HX  93
AURORA         SUNNY     84  69  60 SE13G20   29.98F
HASTINGS       SUNNY     87  69  54 S12       29.99F HX  91
HEBRON         SUNNY     89  69  51 SE8       29.98F HX  92
HOLDREGE       SUNNY     87  65  47 S13       29.99S
KEARNEY        SUNNY     88  71  57 S16       29.98F HX  94
YORK           SUNNY     84  68  58 S9        29.99S
$$

NEZ011>018-030>034-042>045-242000-
NORTHEAST NEBRASKA

CITY           SKY/WX    TMP DP  RH WIND       PRES   REMARKS
NORFOLK        SUNNY     86  62  44 SE15G26   29.96F
ALBION         SUNNY     86  69  56 SE12      29.97F HX  90
BLAIR          SUNNY     83  64  51 SE5       30.00F
COLUMBUS       SUNNY     84  67  56 SE14      29.98F
FREMONT        MOSUNNY   83  62  48 SE9       30.00S
TEKAMAH        SUNNY     82  64  54 SE8       29.99F
WAYNE          SUNNY     83  65  55 S14       29.98F
$$

NEZ050>053-065>068-078-088>093-242000-
SOUTHEAST NEBRASKA

CITY           SKY/WX    TMP DP  RH WIND       PRES   REMARKS
LINCOLN        SUNNY     85  66  53 SE10      29.99F
OMAHA EPPLEY   MOSUNNY   84  63  49 SE9       29.99F
BEATRICE       MOSUNNY   87  66  49 SE8       29.99F
FALLS CITY     SUNNY     84  64  50 VRB3      30.00F
NEBRASKA CITY  SUNNY     81  68  63 S8        30.01F
PLATTSMOUTH    MOSUNNY   80  63  55 E7        30.01S
$$

NEZ044-045-051>053-067-242000-
OMAHA AREA

CITY           SKY/WX    TMP DP  RH WIND       PRES   REMARKS
OMAHA EPPLEY   MOSUNNY   84  63  49 SE9       29.99F
BLAIR          SUNNY     83  64  51 SE5       30.00F
FREMONT        MOSUNNY   83  62  48 SE9       30.00S
MILLARD        SUNNY     84  67  54 SE6       30.00S
OFFUTT AFB     SUNNY     83  64  52 SE9       29.99F
PLATTSMOUTH    MOSUNNY   80  63  55 E7        30.01S
WAHOO          FAIR      83  64  52 SE8       30.00S
$$




USA.gov is the U.S. government's official web portal to all federal, state and local government web resources and services.